Regional Weather Roundup
Issued by NWS

Home | Current Version | Previous Version | Text Only | Print | Product List | Glossary On
Versions: 1 2 3 4 5 6 7 8 9 10 11 12 13 14 15 16 17 18 19 20 21 22 23 24 25 26 27 28 29 30 31 32 33 34 35 36 37 38 39 40 41 42 43 44 45 46 47 48 49 50
000
ASUS43 KDTX 222310
RWRMI
MICHIGAN HOURLY REGIONAL WEATHER ROUNDUP
NATIONAL WEATHER SERVICE DETROIT/PONTIAC MI
ISSUED BY NATIONAL WEATHER SERVICE GRAND RAPIDS MI
600 PM EST WED FEB 22 2017

NOTE: "FAIR" INDICATES FEW OR NO CLOUDS BELOW 12,000 FEET WITH NO
SIGNIFICANT WEATHER AND/OR OBSTRUCTION TO VISIBILITY.

MIZ047>049-052>055-059>063-066>070-074>076-081>083-230000-
SOUTHEAST LOWER MICHIGAN

CITY           SKY/WX    TMP DP  RH WIND       PRES   REMARKS
ADRIAN         CLOUDY    60  54  80 S8        29.75S
ALMA           CLEAR     59  53  79 S14G20    29.67S
ANN ARBOR      CLOUDY    61  54  77 S9        29.73F
BAD AXE        PTCLDY    60  50  69 SW12      29.67S
DETROIT CITY   MOCLDY    59  54  83 S8        29.74S
DETROIT        CLOUDY    61  54  77 S9        29.75S
FLINT          CLEAR     59  52  77 S9        29.70F
GROSSE ILE     PTCLDY    47  45  95 S7        29.75R FOG
HILLSDALE      CLOUDY    57  52  82 S9        29.74S
HOWELL         PTCLDY    58  50  74 S9        29.71F

CITY           SKY/WX    TMP DP  RH WIND       PRES   REMARKS
JACKSON        CLOUDY    60  51  72 S10       29.73S
LANSING        MOCLDY    59  51  75 S12       29.70F
MASON          MOCLDY    59  53  81 S5        29.71S
MONROE         CLOUDY    60  55  84 S8G22     29.75S
MT. CLEMENS    CLOUDY    56  53  90 S8        29.72S FOG
PONTIAC        MOCLDY    59  52  77 S6        29.71F
PORT HOPE        N/A     62  50  64 VRB6      29.64F
PORT HURON     CLOUDY    59  54  82 S9        29.74R
TRI CITIES     PTCLDY    60  53  77 S13       29.66S
YPSILANTI      CLOUDY    62  55  77 S13       29.74F
$$
MIZ043>046-050>051-056>058-064>065-071>073-077>080-230000-
SOUTHWEST LOWER MICHIGAN

CITY           SKY/WX    TMP DP  RH WIND       PRES   REMARKS
BATTLE CREEK   CLOUDY    59  53  80 S13       29.72F
BENTON HARBOR  CLEAR     63  54  72 S9        29.67F
BIG RAPIDS     CLEAR     59  50  72 SW12G20   29.60F
COLDWATER      CLOUDY    60  54  78 S5        29.73S
HOLLAND        CLEAR     61  52  72 S10       29.65F
GRAND RAPIDS   PTCLDY    61  51  70 S13       29.66F
KALAMAZOO      CLOUDY    59  51  75 S9        29.71F
MARSHALL       CLOUDY    60  53  78 S6        29.71S
MOUNT PLEASANT CLEAR     60  53  78 S8        29.64S
MUSKEGON       MOCLDY    55  52  89 S16G25    29.63F FOG
STURGIS        CLOUDY    59  54  82 SW9       29.73R
$$
MIZ016>042-230000-
NORTHERN LOWER MICHIGAN

CITY           SKY/WX    TMP DP  RH WIND       PRES   REMARKS
ALPENA         PTCLDY    56  50  80 S10       29.57F
BEAVER ISLAND  FOG       42  42  99 CALM      29.60R VSB 1/2
BELLAIRE       MOCLDY    59  47  64 S3        29.57R
CADILLAC       PTCLDY    54  50  88 S9        29.59S
CHARLEVOIX     FOG       43  43 100 CALM      29.62R VSB 1/2
GAYLORD        CLEAR     54  44  69 SW17      29.58R
HOUGHTON LAKE  CLEAR     55  49  80 S6        29.60F
MANISTEE       CLOUDY    55  51  86 S9        29.57R
OSCODA         PTCLDY    56  52  85 SW8       29.61F
PELLSTON       CLOUDY    44  41  89 NW7       29.59S FOG
TRAVERSE CITY  CLOUDY    60  48  64 S5        29.55R
LUDINGTON      CLOUDY    54  52  92 S8        29.57S FOG
$$
MIZ007>008-015-230000-
EASTERN UPPER MICHIGAN

CITY           SKY/WX    TMP DP  RH WIND       PRES   REMARKS
KINROSS        CLOUDY    43  42  97 S3        29.59F FOG
MACKINAC ISLAN CLOUDY    43  43 100 N5        29.59R
NEWBERRY       LGT RAIN  37  36  93 W5        29.59R WCI  34
S. S. MARIE    CLOUDY    41  39  93 E5        29.58F
$$
MIZ004>006-011>014-085-230000-
CENTRAL UPPER MICHIGAN

CITY           SKY/WX    TMP DP  RH WIND       PRES   REMARKS
MANISTIQUE     CLOUDY    41  40  97 CALM      29.58S FOG
ESCANABA       MOCLDY    47  40  76 NW3       29.60R
MENOMINEE      MOCLDY    47  42  83 CALM      29.58R
SAWYER-GWINN   LGT RAIN  37  36  93 NE6       29.60S WCI  33
$$
MIZ001>003-009>011-084-230000-
WESTERN UPPER MICHIGAN

CITY           SKY/WX    TMP DP  RH WIND       PRES   REMARKS
IRON MOUNTAIN  CLOUDY    45  40  82 NE3       29.56F
HOUGHTON       CLOUDY    38  31  76 NE10      29.58F WCI  31
COPPER HARBOR    N/A     37  33  85 N8        29.62S WCI  31
IRONWOOD       MOCLDY    42  35  76 NE6       29.56S
$$

ABBREVIATIONS USED IN REMARKS
   TC - TEMPERATURE IN CELSIUS
  WCI - WIND CHILL INDEX
   HX - HEAT INDEX
  VSB - VISIBILITY





USA.gov is the U.S. government's official web portal to all federal, state and local government web resources and services.